FENGYUN 1C DEB, 29972

Orbit data source: Space-Track

FENGYUN 1C DEB, 29972 is space debris in SSO originally from a launch on Mon, 10 May 1999 UTC launched from the Taiyaun Space Center, China (TSC). Fengyun 1C debris stems from the Chinese weather satellite Fengyun-1C, which was intentionally destroyed by a Chinese anti-satellite missile in 2007. This event dramatically increased the amount of space debris, with thousands of trackable fragments posing hazards to satellites and human spaceflight. The Fengyun 1C debris cloud has become a focal point in discussions about space sustainability and the need for international regulations to prevent the creation of new debris.

Loading next visibility...
Identifier
29972, 1999-025KW
Orbit
SSO
Country
Flag of CNCN / PRC
Related business
Manufacturer
Unknown
Mission
Spacecraft
Bus & Motor
Unknown
Mass
Unknown
Launch date (UTC)
1999-05-10 (27 years ago)
Launch vehicle
Unknown
Launch site
Taiyaun Space Center, China (TSC)
Object type
Payload
Rocket body
Debris
Shape & HBR
Unknown shape, 0.1 m
Radar Cross Section
Small (<0.1 m²)

Expand to show TLE details & history
Last TLE update: 16 hours ago

TLE from 16 hours ago
0 FENGYUN 1C DEB
1 29972U 99025KW  26124.04124589  .00004356  00000-0  74460-3 0  9994
2 29972  98.9087 153.6317 0060678 291.5712  97.2926 14.68283976 15715
Epoch: 2026-05-04T00:59Z
TLE epoch observation values (Epoch: 2026-05-04T00:59:23.644Z)
Latitude
29.2113°
Longitude
-88.15397°
Altitude
675.9 km
Speed
7.518 km/s
True Right ascension
09h 54m 31s
True Declination
29° 03' 48"
Sunlit
Object was in daylight at epoch
Visualization orbit readout
Latitude
Unknown
Longitude
Unknown
Altitude
Unknown
Speed
Unknown
Apparent Right ascension
Unknown
Apparent Declination
Unknown
Sunlit
N/A
Visualization observer readout
Local Sidereal Time
00:48:29
Azimuth
Unknown
Elevation
Unknown
Doppler factor
Unknown
Orbital elements
Apogee altitude
706.384 km
Perigee altitude
620.928 km
Semi-major axis
7,041.793 km
Eccentricity
0.00607
Inclination
98.9087°
RAAN
153.6317°
Arg. of periapsis
291.5712°
True anomaly
97.98161°
Mean anomaly
97.2926°
Eccentric anomaly
97.63718°
Mean motion
3.67298 °/min
Orbital period
98.01 mins
BSTAR
0.0007446
Loading maneuver chart data...
Computing Atmospheric mass density...

Documentation

Showing up to 5 results
|